Flag for U.S.A. Weather past 2 weeks in Victoria, Texas, U.S.A.

Now
77 °F

Sunny.


Feels Like: 79 °F
Forecast: 74 / 85 °F
Wind: 7 mph from Southeast

Location: Victoria Regional Airport

Current Time: May 29, 2015 at 9:51:24 PM

Latest Report: May 29, 2015 at 8:51 PM


Visibility: 10 mi

Pressure: 29.95 "Hg

Humidity: 82%

Dew point: 71 °F

Location of VictoriaLocation

Historic Weather in Victoria — Graph

°F

Victoria temperature yesterday

Maximum temperature yesterday: 88 °F (at 1:51 PM)
Minimum temperature yesterday: 75 °F (at 12:51 AM)
Average temperature yesterday: 80 °F

Past Weeks' High & Low Weather Summary

 TemperatureHumidityPressure
High89 °F (May 26, 2:54 PM)100% (May 14, 9:51 PM)30.10 "Hg (May 14, 9:51 PM)
Low66 °F (May 29, 4:58 AM)51% (May 29, 4:51 PM)29.76 "Hg (May 25, 5:51 PM)
Average78 °F89%29.96 "Hg
* Reported May 14 7:51 PM — May 29 7:51 PM, Victoria, Weather by CustomWeather, © 2015

Note: Actual official high and low records may vary slightly from our data, if they occured in-between our weather recording intervals... More about our weather records

Advertising

Victoria weather history for previous 24 hours

 ConditionsComfort  
Time TempWeatherWind HumidityBarometerVisibility
7:51 PM
Fri, May 29
81 °FSunny.9 mph69%29.94 "Hg10 mi
6:51 PM84 °FSunny.17 mph61%29.93 "Hg10 mi
5:51 PM86 °FSunny.16 mph57%29.93 "Hg10 mi
4:51 PM87 °FSunny.18 mph51%29.94 "Hg10 mi
3:51 PM88 °FPassing clouds.16 mph57%29.96 "Hg10 mi
2:51 PM88 °FSunny.10 mph54%29.96 "Hg10 mi
1:51 PM86 °FSunny.7 mph57%29.97 "Hg10 mi
12:51 PM84 °FSunny.7 mph61%29.98 "Hg10 mi
11:51 AM81 °FSunny.12 mph67%29.97 "Hg10 mi
10:51 AM75 °FScattered clouds.15 mph76%29.96 "Hg10 mi
10:04 AM73 °FScattered clouds.25 mph81%29.95 "Hg10 mi
9:51 AM75 °FPassing clouds.18 mph71%29.85 "Hg10 mi
8:51 AM68 °FLight rain. Broken clouds.30 mph93%29.92 "Hg10 mi
7:51 AM68 °FPartly sunny.9 mph96%29.97 "Hg10 mi
6:51 AM67 °FPartly cloudy.6 mph97%29.98 "Hg10 mi
5:51 AM67 °FPartly cloudy.10 mph93%29.99 "Hg10 mi
4:58 AM66 °FThundershowers. Mostly cloudy.12 mph96%30.03 "Hg10 mi
3:51 AM69 °FThundershowers. Passing clouds.24 mph87%30.01 "Hg9 mi
3:00 AM76 °FPassing clouds.5 mph97%29.99 "Hg7 mi
1:51 AM77 °FClear.6 mph94%29.97 "Hg9 mi
12:51 AM77 °FPassing clouds.7 mph94%29.97 "Hg9 mi
11:51 PM
Thu, May 28
77 °FClear.9 mph96%29.96 "Hg10 mi
10:51 PM78 °FPartly cloudy.10 mph93%29.96 "Hg9 mi
9:51 PM78 °FPassing clouds.12 mph93%29.95 "Hg10 mi
Weather by CustomWeather, © 2015

See weather overviewHow to use our weather pages